,,,PA_Meas_PMT16A,,PR_Meas_QMR101_102,,RH_Meas_QMH101,,SR_Meas_QMS101,,TA_Meas_QMH101,,GenWind,,GenWind,
date,time,status,PA,status,PR,status,RH,status,SR,status,TA,status,DirAvg,status,SpdAvg,
2010-08-18, 00:00:05,VALID,1000.29,VALID,0,VALID,89.0682,VALID,0,VALID,23.7988,VALID,149,VALID,0.854688,
2010-08-18, 00:01:05,VALID,1000.28,VALID,0,VALID,89.1826,VALID,0,VALID,23.7988,VALID,148,VALID,0.833984,
2010-08-18, 00:02:05,VALID,1000.28,VALID,0,VALID,89.2208,VALID,0,VALID,23.8183,VALID,137,VALID,0.623438,
2010-08-18, 00:03:05,VALID,1000.25,VALID,0,VALID,89.2284,VALID,0,VALID,23.7775,VALID,137,VALID,0.648828,
2010-08-18, 00:04:05,VALID,1000.27,VALID,0,VALID,89.3276,VALID,0,VALID,23.7988,VALID,137,VALID,0.648828,
2010-08-18, 00:05:05,VALID,1000.28,VALID,0,VALID,89.4649,VALID,0,VALID,23.7988,VALID,137,VALID,0.619531,
2010-08-18, 00:06:05,VALID,1000.25,VALID,0,VALID,89.4039,VALID,0,VALID,23.7597,VALID,137,VALID,0.502734,
2010-08-18, 00:07:05,VALID,1000.21,VALID,0,VALID,89.4039,VALID,0,VALID,23.7597,VALID,137,VALID,0.345703,
2010-08-18, 00:08:05,VALID,1000.21,VALID,0,VALID,89.3276,VALID,0,VALID,23.7402,VALID,137,VALID,0.373047,
2010-08-18, 00:09:05,VALID,1000.2,VALID,0,VALID,89.3963,VALID,0,VALID,23.7189,VALID,137,VALID,0.622656,
2010-08-18, 00:10:05,VALID,1000.19,VALID,0,VALID,89.2666,VALID,0,VALID,23.7402,VALID,137,VALID,0.632813,
2010-08-18, 00:11:05,VALID,1000.12,VALID,0,VALID,89.2666,VALID,0,VALID,23.7207,VALID,137,VALID,0.805859,
2010-08-18, 00:12:05,VALID,1000.13,VALID,0,VALID,89.175,VALID,0,VALID,23.7207,VALID,128,VALID,0.899609,
2010-08-18, 00:13:05,VALID,1000.13,VALID,0,VALID,89.1826,VALID,0,VALID,23.6799,VALID,127,VALID,0.807813,
2010-08-18, 00:14:05,VALID,1000.11,VALID,0,VALID,89.1445,VALID,0,VALID,23.7012,VALID,126,VALID,0.765234,
2010-08-18, 00:15:05,VALID,1000.11,VALID,0,VALID,89.2284,VALID,0,VALID,23.6817,VALID,125,VALID,0.834766,
2010-08-18, 00:16:05,VALID,1000.14,VALID,0,VALID,89.4039,VALID,0,VALID,23.6622,VALID,121,VALID,0.880859,
2010-08-18, 00:17:05,VALID,1000.09,VALID,0,VALID,89.587,VALID,0,VALID,23.6427,VALID,112,VALID,0.727734,
2010-08-18, 00:18:05,VALID,1000.1,VALID,0,VALID,89.7091,VALID,0,VALID,23.6036,VALID,108,VALID,0.770703,
2010-08-18, 00:19:05,VALID,1000.07,VALID,0,VALID,89.7396,VALID,0,VALID,23.6036,VALID,107,VALID,0.668359,
2010-08-18, 00:20:05,VALID,1000.09,VALID,0,VALID,89.8388,VALID,0,VALID,23.5646,VALID,107,VALID,0.764063,
2010-08-18, 00:21:05,VALID,1000.07,VALID,0,VALID,90.06,VALID,0,VALID,23.5451,VALID,103,VALID,0.771094,
2010-08-18, 00:22:05,VALID,1000.06,VALID,0,VALID,90.0906,VALID,0,VALID,23.5043,VALID,103,VALID,0.453125,
2010-08-18, 00:23:05,VALID,1000.07,VALID,0,VALID,90.1974,VALID,0,VALID,23.4653,VALID,103,VALID,0.257422,
2010-08-18, 00:24:05,VALID,1000.02,VALID,0,VALID,90.3042,VALID,0,VALID,23.4671,VALID,103,VALID,0.0222656,
2010-08-18, 00:25:05,VALID,1000,VALID,0,VALID,90.35,VALID,0,VALID,23.428,VALID,103,VALID,0,
2010-08-18, 00:26:05,VALID,1000.04,VALID,0,VALID,90.3957,VALID,0,VALID,23.3677,VALID,103,VALID,0.04375,
2010-08-18, 00:27:05,VALID,999.961,VALID,0,VALID,90.5407,VALID,0,VALID,23.389,VALID,103,VALID,0,
2010-08-18, 00:28:04,VALID,999.953,VALID,0,VALID,90.6399,VALID,0,VALID,23.3695,VALID,103,VALID,0,
2010-08-18, 00:29:04,VALID,999.964,VALID,0,VALID,90.678,VALID,0,VALID,23.3305,VALID,103,VALID,0,
2010-08-18, 00:30:04,VALID,999.94,VALID,0,VALID,90.6475,VALID,0,VALID,23.2897,VALID,103,VALID,0,
2010-08-18, 00:31:04,VALID,999.899,VALID,0,VALID,90.7238,VALID,0,VALID,23.2719,VALID,103,VALID,0,
2010-08-18, 00:32:04,VALID,999.879,VALID,0,VALID,90.8917,VALID,0,VALID,23.2507,VALID,103,VALID,0,
2010-08-18, 00:33:04,VALID,999.861,VALID,0,VALID,91.0061,VALID,0,VALID,23.2507,VALID,103,VALID,0,
2010-08-18, 00:34:04,VALID,999.824,VALID,0,VALID,91.1206,VALID,0,VALID,23.2524,VALID,103,VALID,0,
2010-08-18, 00:35:04,VALID,999.831,VALID,0,VALID,91.2045,VALID,0,VALID,23.2524,VALID,103,VALID,0,
2010-08-18, 00:36:04,VALID,999.819,VALID,0,VALID,91.3189,VALID,0,VALID,23.2524,VALID,103,VALID,0.108984,
2010-08-18, 00:37:04,VALID,999.808,VALID,0,VALID,91.296,VALID,0,VALID,23.2719,VALID,103,VALID,0.344531,
2010-08-18, 00:38:04,VALID,999.781,VALID,0,VALID,91.3113,VALID,0,VALID,23.2719,VALID,99,VALID,0.403125,
2010-08-18, 00:39:04,VALID,999.747,VALID,0,VALID,91.1206,VALID,0,VALID,23.2915,VALID,99,VALID,0.371484,
2010-08-18, 00:40:04,VALID,999.751,VALID,0,VALID,91.174,VALID,0,VALID,23.2915,VALID,67,VALID,0.525,
2010-08-18, 00:41:04,VALID,999.76,VALID,0,VALID,91.1511,VALID,0,VALID,23.2915,VALID,347,VALID,0.821484,
2010-08-18, 00:42:04,VALID,999.759,VALID,0,VALID,91.2426,VALID,0,VALID,23.2719,VALID,322,VALID,0.810547,
2010-08-18, 00:43:04,VALID,999.737,VALID,0,VALID,91.3647,VALID,0,VALID,23.2524,VALID,310,VALID,0.726953,
2010-08-18, 00:44:04,VALID,999.7,VALID,0,VALID,91.4334,VALID,0,VALID,23.2329,VALID,310,VALID,0.580469,
2010-08-18, 00:45:04,VALID,999.691,VALID,0,VALID,91.586,VALID,0,VALID,23.2329,VALID,310,VALID,0.687109,
2010-08-18, 00:46:04,VALID,999.683,VALID,0,VALID,91.6699,VALID,0,VALID,23.2134,VALID,310,VALID,0.477344,
2010-08-18, 00:47:04,VALID,999.685,VALID,0,VALID,91.7233,VALID,0,VALID,23.2329,VALID,310,VALID,0.319531,
2010-08-18, 00:48:04,VALID,999.706,VALID,0,VALID,91.7538,VALID,0,VALID,23.2329,VALID,310,VALID,0,
2010-08-18, 00:49:04,VALID,999.677,VALID,0,VALID,91.7691,VALID,0,VALID,23.2329,VALID,310,VALID,0,
2010-08-18, 00:50:04,VALID,999.7,VALID,0,VALID,91.792,VALID,0,VALID,23.2329,VALID,310,VALID,0,
2010-08-18, 00:51:04,VALID,999.708,VALID,0,VALID,91.8072,VALID,0,VALID,23.2329,VALID,310,VALID,0,
2010-08-18, 00:52:04,VALID,999.733,VALID,0,VALID,91.7996,VALID,0,VALID,23.2329,VALID,310,VALID,0,
2010-08-18, 00:53:04,VALID,999.71,VALID,0,VALID,91.7767,VALID,0,VALID,23.2329,VALID,258,VALID,0.517969,
2010-08-18, 00:54:04,VALID,999.712,VALID,0,VALID,91.8377,VALID,0,VALID,23.2312,VALID,258,VALID,0.460547,
2010-08-18, 00:55:04,VALID,999.699,VALID,0,VALID,91.7996,VALID,0,VALID,23.2719,VALID,258,VALID,0.166797,
2010-08-18, 00:56:04,VALID,999.734,VALID,0,VALID,91.8225,VALID,0,VALID,23.2915,VALID,258,VALID,0.407813,
2010-08-18, 00:57:04,VALID,999.698,VALID,0,VALID,91.8072,VALID,0,VALID,23.311,VALID,258,VALID,0.208203,
2010-08-18, 00:58:04,VALID,999.716,VALID,0,VALID,91.7385,VALID,0,VALID,23.2897,VALID,258,VALID,0.219141,
2010-08-18, 00:59:04,VALID,999.707,VALID,0,VALID,91.6546,VALID,0,VALID,23.311,VALID,258,VALID,0.161328,
2010-08-18, 01:00:04,VALID,999.708,VALID,0,VALID,91.6241,VALID,0,VALID,23.2897,VALID,258,VALID,0.116016,
2010-08-18, 01:01:04,VALID,999.692,VALID,0,VALID,91.6165,VALID,0,VALID,23.311,VALID,258,VALID,0.243359,
2010-08-18, 01:02:04,VALID,999.712,VALID,0,VALID,91.6012,VALID,0,VALID,23.311,VALID,258,VALID,0.512109,
2010-08-18, 01:03:04,VALID,999.69,VALID,0,VALID,91.5783,VALID,0,VALID,23.2915,VALID,258,VALID,0.575391,
2010-08-18, 01:04:04,VALID,999.713,VALID,0,VALID,91.5936,VALID,0,VALID,23.2915,VALID,286,VALID,0.830859,
2010-08-18, 01:05:04,VALID,999.672,VALID,0,VALID,91.647,VALID,0,VALID,23.2915,VALID,287,VALID,0.558203,
2010-08-18, 01:06:04,VALID,999.704,VALID,0,VALID,91.6851,VALID,0,VALID,23.2915,VALID,287,VALID,0.412891,
2010-08-18, 01:07:04,VALID,999.696,VALID,0,VALID,91.7309,VALID,0,VALID,23.2915,VALID,287,VALID,0.308203,
2010-08-18, 01:08:04,VALID,999.664,VALID,0,VALID,91.7462,VALID,0,VALID,23.2915,VALID,287,VALID,0.270703,
2010-08-18, 01:09:04,VALID,999.702,VALID,0,VALID,91.7843,VALID,0,VALID,23.2915,VALID,287,VALID,0.201172,
2010-08-18, 01:10:04,VALID,999.678,VALID,0,VALID,91.7767,VALID,0,VALID,23.311,VALID,287,VALID,0.0839844,
2010-08-18, 01:11:04,VALID,999.691,VALID,0,VALID,91.7233,VALID,0,VALID,23.2915,VALID,287,VALID,0.15625,
2010-08-18, 01:12:04,VALID,999.658,VALID,0,VALID,91.7004,VALID,0,VALID,23.2915,VALID,287,VALID,0.23125,
2010-08-18, 01:13:04,VALID,999.688,VALID,0,VALID,91.6165,VALID,0,VALID,23.2117,VALID,287,VALID,0.358594,
2010-08-18, 01:14:04,VALID,999.656,VALID,0,VALID,91.5249,VALID,0,VALID,23.1939,VALID,287,VALID,0.291797,
2010-08-18, 01:15:04,VALID,999.693,VALID,0,VALID,91.5326,VALID,0,VALID,23.1549,VALID,287,VALID,0,
2010-08-18, 01:16:04,VALID,999.671,VALID,0,VALID,91.6394,VALID,0,VALID,23.1159,VALID,287,VALID,0,
2010-08-18, 01:17:04,VALID,999.65,VALID,0,VALID,91.7462,VALID,0,VALID,23.0769,VALID,287,VALID,0,
2010-08-18, 01:18:04,VALID,999.631,VALID,0,VALID,91.647,VALID,0,VALID,22.9988,VALID,287,VALID,0,
2010-08-18, 01:19:04,VALID,999.652,VALID,0,VALID,91.7462,VALID,0,VALID,22.9793,VALID,287,VALID,0,
2010-08-18, 01:20:04,VALID,999.596,VALID,0,VALID,92.0895,VALID,0,VALID,22.9988,VALID,287,VALID,0,
2010-08-18, 01:21:04,VALID,999.596,VALID,0,VALID,92.3337,VALID,0,VALID,23.0183,VALID,287,VALID,0,
2010-08-18, 01:22:04,VALID,999.574,VALID,0,VALID,92.5091,VALID,0,VALID,23.0378,VALID,287,VALID,0,
2010-08-18, 01:23:04,VALID,999.552,VALID,0,VALID,92.5702,VALID,0,VALID,23.0378,VALID,287,VALID,0,
2010-08-18, 01:24:04,VALID,999.53,VALID,0,VALID,92.5702,VALID,0,VALID,23.0378,VALID,287,VALID,0,
2010-08-18, 01:25:04,VALID,999.516,VALID,0,VALID,92.5091,VALID,0,VALID,22.9971,VALID,287,VALID,0,
2010-08-18, 01:26:04,VALID,999.558,VALID,0,VALID,92.4176,VALID,0,VALID,22.9776,VALID,287,VALID,0,
2010-08-18, 01:27:04,VALID,999.531,VALID,0,VALID,92.41,VALID,0,VALID,23.0183,VALID,287,VALID,0,
2010-08-18, 01:28:04,VALID,999.517,VALID,0,VALID,92.3794,VALID,0,VALID,23.0183,VALID,287,VALID,0.434375,
2010-08-18, 01:29:04,VALID,999.491,VALID,0,VALID,92.3718,VALID,0,VALID,22.9988,VALID,287,VALID,0.322656,
2010-08-18, 01:30:04,VALID,999.513,VALID,0,VALID,92.2803,VALID,0,VALID,22.9988,VALID,287,VALID,0.155078,
2010-08-18, 01:31:04,VALID,999.493,VALID,0,VALID,92.1734,VALID,0,VALID,22.9793,VALID,287,VALID,0.557813,
2010-08-18, 01:32:04,VALID,999.497,VALID,0,VALID,92.2803,VALID,0,VALID,22.9793,VALID,34,VALID,0.767187,
2010-08-18, 01:33:04,VALID,999.464,VALID,0,VALID,92.265,VALID,0,VALID,22.9988,VALID,41,VALID,0.760938,
2010-08-18, 01:34:04,VALID,999.427,VALID,0,VALID,92.1277,VALID,0,VALID,22.9988,VALID,41,VALID,0.667969,
2010-08-18, 01:35:04,VALID,999.406,VALID,0,VALID,92.1124,VALID,0,VALID,22.9988,VALID,41,VALID,0.8625,
2010-08-18, 01:36:04,VALID,999.432,VALID,0,VALID,92.0819,VALID,0,VALID,22.9988,VALID,26,VALID,0.795703,
2010-08-18, 01:37:04,VALID,999.421,VALID,0,VALID,91.8911,VALID,0,VALID,22.9793,VALID,21,VALID,0.814453,
2010-08-18, 01:38:04,VALID,999.42,VALID,0,VALID,91.9369,VALID,0,VALID,22.9776,VALID,9,VALID,0.655469,
2010-08-18, 01:39:04,VALID,999.465,VALID,0,VALID,91.9598,VALID,0,VALID,22.9793,VALID,4,VALID,0.520703,
2010-08-18, 01:40:04,VALID,999.471,VALID,0,VALID,91.9751,VALID,0,VALID,22.9385,VALID,7,VALID,0.734766,
2010-08-18, 01:41:04,VALID,999.492,VALID,0,VALID,92.0971,VALID,0,VALID,22.9598,VALID,35,VALID,1.13945,
2010-08-18, 01:42:04,VALID,999.459,VALID,0,VALID,92.0819,VALID,0,VALID,22.9403,VALID,42,VALID,1.39297,
2010-08-18, 01:43:04,VALID,999.473,VALID,0,VALID,92.1124,VALID,0,VALID,22.9208,VALID,46,VALID,1.22227,
2010-08-18, 01:44:04,VALID,999.481,VALID,0,VALID,92.2421,VALID,0,VALID,22.8995,VALID,46,VALID,1.42773,
2010-08-18, 01:45:04,VALID,999.435,VALID,0,VALID,92.4252,VALID,0,VALID,22.9403,VALID,45,VALID,1.21797,
2010-08-18, 01:46:04,VALID,999.459,VALID,0,VALID,92.4786,VALID,0,VALID,22.919,VALID,39,VALID,0.884766,
2010-08-18, 01:47:04,VALID,999.463,VALID,0,VALID,92.5778,VALID,0,VALID,22.9598,VALID,46,VALID,0.921875,
2010-08-18, 01:48:04,VALID,999.483,VALID,0,VALID,92.6923,VALID,0,VALID,22.9793,VALID,51,VALID,1.04766,
2010-08-18, 01:49:04,VALID,999.508,VALID,0,VALID,92.7685,VALID,0,VALID,22.9793,VALID,63,VALID,1.03203,
2010-08-18, 01:50:04,VALID,999.487,VALID,0,VALID,92.8143,VALID,0,VALID,22.9988,VALID,65,VALID,0.776172,
2010-08-18, 01:51:04,VALID,999.477,VALID,0,VALID,92.8525,VALID,0,VALID,22.9988,VALID,67,VALID,0.682031,
2010-08-18, 01:52:04,VALID,999.486,VALID,0,VALID,92.8448,VALID,0,VALID,23.0183,VALID,67,VALID,0.591406,
2010-08-18, 01:53:04,VALID,999.483,VALID,0,VALID,92.8372,VALID,0,VALID,23.0378,VALID,72,VALID,0.607422,
2010-08-18, 01:54:04,VALID,999.482,VALID,0,VALID,92.8143,VALID,0,VALID,23.0166,VALID,79,VALID,0.819531,
2010-08-18, 01:55:04,VALID,999.485,VALID,0,VALID,92.7838,VALID,0,VALID,23.0573,VALID,90,VALID,0.952734,
2010-08-18, 01:56:04,VALID,999.464,VALID,0,VALID,92.6923,VALID,0,VALID,23.0769,VALID,102,VALID,0.932422,
2010-08-18, 01:57:04,VALID,999.487,VALID,0,VALID,92.6236,VALID,0,VALID,23.0769,VALID,102,VALID,0.802734,
2010-08-18, 01:58:04,VALID,999.515,VALID,0,VALID,92.5015,VALID,0,VALID,23.0769,VALID,102,VALID,0.820313,
2010-08-18, 01:59:04,VALID,999.497,VALID,0,VALID,92.4405,VALID,0,VALID,23.0769,VALID,103,VALID,0.678125,
2010-08-18, 02:00:04,VALID,999.541,VALID,0,VALID,92.3718,VALID,0,VALID,23.0556,VALID,103,VALID,0.703906,
2010-08-18, 02:01:04,VALID,999.557,VALID,0,VALID,92.3108,VALID,0,VALID,23.0769,VALID,103,VALID,0.933203,
2010-08-18, 02:02:04,VALID,999.571,VALID,0,VALID,92.2726,VALID,0,VALID,23.0769,VALID,103,VALID,0.851172,
2010-08-18, 02:03:04,VALID,999.57,VALID,0,VALID,92.2421,VALID,0.112286,VALID,23.1159,VALID,107,VALID,0.85625,
2010-08-18, 02:04:04,VALID,999.613,VALID,0,VALID,92.2116,VALID,0,VALID,23.1354,VALID,117,VALID,0.625781,
2010-08-18, 02:05:04,VALID,999.622,VALID,0,VALID,92.1734,VALID,0,VALID,23.1354,VALID,117,VALID,0.344922,
2010-08-18, 02:06:04,VALID,999.594,VALID,0,VALID,92.1124,VALID,0,VALID,23.1354,VALID,117,VALID,0.184375,
2010-08-18, 02:07:04,VALID,999.591,VALID,0,VALID,92.0666,VALID,0,VALID,23.1549,VALID,117,VALID,0.0558594,
2010-08-18, 02:08:04,VALID,999.562,VALID,0,VALID,92.0666,VALID,0,VALID,23.1549,VALID,117,VALID,0.404297,
2010-08-18, 02:09:04,VALID,999.578,VALID,0,VALID,92.0819,VALID,0,VALID,23.1744,VALID,117,VALID,0.288281,
2010-08-18, 02:10:04,VALID,999.568,VALID,0,VALID,92.0666,VALID,0,VALID,23.1939,VALID,117,VALID,0,
2010-08-18, 02:11:04,VALID,999.572,VALID,0,VALID,92.0437,VALID,0,VALID,23.1939,VALID,117,VALID,0,
2010-08-18, 02:12:04,VALID,999.547,VALID,0,VALID,92.0361,VALID,0,VALID,23.2134,VALID,151,VALID,0.691797,
2010-08-18, 02:13:04,VALID,999.525,VALID,0,VALID,91.9598,VALID,0,VALID,23.2719,VALID,151,VALID,0.763281,
2010-08-18, 02:14:04,VALID,999.517,VALID,0,VALID,91.9064,VALID,0,VALID,23.311,VALID,156,VALID,0.797266,
2010-08-18, 02:15:04,VALID,999.494,VALID,0,VALID,91.7843,VALID,0,VALID,23.3677,VALID,165,VALID,0.996094,
2010-08-18, 02:16:04,VALID,999.483,VALID,0,VALID,91.7462,VALID,0,VALID,23.4085,VALID,161,VALID,1.25547,
2010-08-18, 02:17:04,VALID,999.463,VALID,0,VALID,91.6394,VALID,0,VALID,23.4866,VALID,151,VALID,1.00937,
2010-08-18, 02:18:04,VALID,999.471,VALID,0,VALID,91.441,VALID,0,VALID,23.5256,VALID,146,VALID,1.00625,
2010-08-18, 02:19:04,VALID,999.456,VALID,0,VALID,91.1663,VALID,0,VALID,23.5451,VALID,146,VALID,0.915234,
2010-08-18, 02:20:04,VALID,999.459,VALID,0,VALID,90.9909,VALID,0,VALID,23.5841,VALID,146,VALID,0.833984,
2010-08-18, 02:21:04,VALID,999.439,VALID,0,VALID,90.8611,VALID,0,VALID,23.5823,VALID,146,VALID,0.780859,
2010-08-18, 02:22:04,VALID,999.415,VALID,0,VALID,90.7696,VALID,0,VALID,23.6036,VALID,146,VALID,0.554297,
2010-08-18, 02:23:04,VALID,999.407,VALID,0,VALID,90.7467,VALID,0,VALID,23.6036,VALID,146,VALID,0.179688,
2010-08-18, 02:24:04,VALID,999.385,VALID,0,VALID,90.7162,VALID,0,VALID,23.5841,VALID,146,VALID,0.155859,
2010-08-18, 02:25:04,VALID,999.396,VALID,0,VALID,90.7391,VALID,0,VALID,23.5841,VALID,146,VALID,0.142969,
2010-08-18, 02:26:04,VALID,999.425,VALID,0,VALID,90.8154,VALID,0,VALID,23.5628,VALID,146,VALID,0.0613281,
2010-08-18, 02:27:04,VALID,999.404,VALID,0,VALID,90.8459,VALID,0,VALID,23.5646,VALID,146,VALID,0,
2010-08-18, 02:28:04,VALID,999.403,VALID,0,VALID,90.8535,VALID,0,VALID,23.5646,VALID,146,VALID,0,
2010-08-18, 02:29:04,VALID,999.394,VALID,0,VALID,90.8383,VALID,0,VALID,23.5433,VALID,146,VALID,0,
2010-08-18, 02:30:04,VALID,999.359,VALID,0,VALID,90.8154,VALID,0,VALID,23.5451,VALID,146,VALID,0,
2010-08-18, 02:31:04,VALID,999.36,VALID,0,VALID,90.8154,VALID,0,VALID,23.5256,VALID,146,VALID,0,
2010-08-18, 02:32:04,VALID,999.344,VALID,0,VALID,90.8917,VALID,0,VALID,23.5061,VALID,146,VALID,0,
2010-08-18, 02:33:04,VALID,999.339,VALID,0,VALID,90.9374,VALID,0,VALID,23.4866,VALID,146,VALID,0,
2010-08-18, 02:34:04,VALID,999.325,VALID,0,VALID,90.9146,VALID,0,VALID,23.5061,VALID,84,VALID,0,
2010-08-18, 02:35:04,VALID,999.269,VALID,0,VALID,90.9603,VALID,0,VALID,23.4866,VALID,80,VALID,0,
2010-08-18, 02:36:04,VALID,999.257,VALID,0,VALID,91.029,VALID,0,VALID,23.4848,VALID,80,VALID,0,
2010-08-18, 02:37:04,VALID,999.238,VALID,0,VALID,91.0824,VALID,0,VALID,23.5043,VALID,80,VALID,0,
2010-08-18, 02:38:04,VALID,999.222,VALID,0,VALID,91.1053,VALID,0,VALID,23.4848,VALID,88,VALID,0.289063,
2010-08-18, 02:39:04,VALID,999.22,VALID,0,VALID,91.0824,VALID,0,VALID,23.5061,VALID,104,VALID,0.558984,
2010-08-18, 02:40:04,VALID,999.2,VALID,0,VALID,91.0595,VALID,0,VALID,23.4866,VALID,104,VALID,0.521875,
2010-08-18, 02:41:04,VALID,999.187,VALID,0,VALID,91.0443,VALID,0,VALID,23.4866,VALID,104,VALID,0.470703,
2010-08-18, 02:42:04,VALID,999.171,VALID,0,VALID,91.0366,VALID,0,VALID,23.5061,VALID,124,VALID,0.624219,
2010-08-18, 02:43:04,VALID,999.17,VALID,0,VALID,90.9832,VALID,0,VALID,23.5061,VALID,124,VALID,0.774609,
2010-08-18, 02:44:04,VALID,999.144,VALID,0,VALID,90.9298,VALID,0,VALID,23.5061,VALID,124,VALID,0.845312,
2010-08-18, 02:45:04,VALID,999.143,VALID,0,VALID,90.9222,VALID,0,VALID,23.5043,VALID,124,VALID,0.734766,
2010-08-18, 02:46:04,VALID,999.141,VALID,0,VALID,90.8688,VALID,0,VALID,23.5256,VALID,124,VALID,0.673437,
2010-08-18, 02:47:04,VALID,999.133,VALID,0,VALID,90.6933,VALID,0,VALID,23.5256,VALID,124,VALID,0.697266,
2010-08-18, 02:48:04,VALID,999.101,VALID,0,VALID,90.7085,VALID,0,VALID,23.5238,VALID,124,VALID,0.587891,
2010-08-18, 02:49:04,VALID,999.138,VALID,0,VALID,90.7314,VALID,0,VALID,23.5043,VALID,124,VALID,0.552734,
2010-08-18, 02:50:04,VALID,999.134,VALID,0,VALID,90.7772,VALID,0,VALID,23.5256,VALID,124,VALID,0.365234,
2010-08-18, 02:51:04,VALID,999.152,VALID,0,VALID,90.8917,VALID,0,VALID,23.5256,VALID,127,VALID,0.501172,
2010-08-18, 02:52:04,VALID,999.164,VALID,0,VALID,90.9374,VALID,0,VALID,23.5061,VALID,128,VALID,0,
2010-08-18, 02:53:04,VALID,999.165,VALID,0,VALID,90.9985,VALID,0,VALID,23.5256,VALID,128,VALID,0,
2010-08-18, 02:54:04,VALID,999.163,VALID,0,VALID,90.9985,VALID,0,VALID,23.5256,VALID,156,VALID,0,
2010-08-18, 02:55:04,VALID,999.177,VALID,0,VALID,90.9832,VALID,0,VALID,23.5238,VALID,156,VALID,0,
2010-08-18, 02:56:04,VALID,999.173,VALID,0,VALID,90.8535,VALID,0,VALID,23.5841,VALID,156,VALID,0,
2010-08-18, 02:57:04,VALID,999.169,VALID,0,VALID,90.7238,VALID,0,VALID,23.5841,VALID,156,VALID,0,
2010-08-18, 02:58:04,VALID,999.129,VALID,0,VALID,90.5636,VALID,0,VALID,23.5646,VALID,156,VALID,0,
2010-08-18, 02:59:04,VALID,999.146,VALID,0,VALID,90.5102,VALID,0,VALID,23.5256,VALID,156,VALID,0,
2010-08-18, 03:00:04,VALID,999.14,VALID,0,VALID,90.7391,VALID,0,VALID,23.4653,VALID,156,VALID,0,
2010-08-18, 03:01:04,VALID,999.156,VALID,0,VALID,90.9451,VALID,0,VALID,23.4671,VALID,156,VALID,0,
2010-08-18, 03:02:04,VALID,999.152,VALID,0,VALID,91.0595,VALID,0,VALID,23.4866,VALID,156,VALID,0,
2010-08-18, 03:03:04,VALID,999.117,VALID,0,VALID,91.029,VALID,0,VALID,23.4671,VALID,6,VALID,0.722656,
2010-08-18, 03:04:04,VALID,999.104,VALID,0,VALID,91.029,VALID,0,VALID,23.4671,VALID,6,VALID,0.861328,
2010-08-18, 03:05:04,VALID,999.111,VALID,0,VALID,91.0671,VALID,0,VALID,23.4475,VALID,6,VALID,0.921875,
2010-08-18, 03:06:04,VALID,999.093,VALID,0,VALID,91.0443,VALID,0,VALID,23.428,VALID,26,VALID,0.746484,
2010-08-18, 03:07:04,VALID,999.062,VALID,0,VALID,90.9756,VALID,0,VALID,23.4067,VALID,26,VALID,0.371875,
2010-08-18, 03:08:04,VALID,999.029,VALID,0,VALID,90.9832,VALID,0,VALID,23.4085,VALID,26,VALID,0.358203,
2010-08-18, 03:09:04,VALID,999.061,VALID,0,VALID,91.1358,VALID,0,VALID,23.4085,VALID,25,VALID,0,
2010-08-18, 03:10:04,VALID,999.009,VALID,0,VALID,91.2731,VALID,0,VALID,23.389,VALID,19,VALID,0,
2010-08-18, 03:11:04,VALID,999.023,VALID,0,VALID,91.4028,VALID,0,VALID,23.389,VALID,19,VALID,0,
2010-08-18, 03:12:04,VALID,999.004,VALID,0,VALID,91.5326,VALID,0,VALID,23.389,VALID,17,VALID,0,
2010-08-18, 03:13:04,VALID,998.99,VALID,0,VALID,91.6012,VALID,0,VALID,23.3695,VALID,17,VALID,0,
2010-08-18, 03:14:04,VALID,998.979,VALID,0,VALID,91.6394,VALID,0,VALID,23.3695,VALID,17,VALID,0,
2010-08-18, 03:15:04,VALID,998.945,VALID,0,VALID,91.708,VALID,0,VALID,23.3287,VALID,17,VALID,0,
2010-08-18, 03:16:04,VALID,998.971,VALID,0,VALID,91.8072,VALID,0,VALID,23.3695,VALID,17,VALID,0,
2010-08-18, 03:17:04,VALID,998.95,VALID,0,VALID,91.9064,VALID,0,VALID,23.35,VALID,17,VALID,0,
2010-08-18, 03:18:04,VALID,998.931,VALID,0,VALID,91.9751,VALID,0,VALID,23.35,VALID,17,VALID,0,
2010-08-18, 03:19:04,VALID,998.934,VALID,0,VALID,92.0056,VALID,0,VALID,23.35,VALID,17,VALID,0,
2010-08-18, 03:20:04,VALID,998.901,VALID,0,VALID,92.0056,VALID,0,VALID,23.35,VALID,17,VALID,0,
2010-08-18, 03:21:04,VALID,998.901,VALID,0,VALID,91.9827,VALID,0,VALID,23.3305,VALID,17,VALID,0,
2010-08-18, 03:22:04,VALID,998.882,VALID,0,VALID,91.9674,VALID,0,VALID,23.35,VALID,17,VALID,0,
2010-08-18, 03:23:04,VALID,998.882,VALID,0,VALID,91.9369,VALID,0,VALID,23.35,VALID,17,VALID,0,
2010-08-18, 03:24:04,VALID,998.873,VALID,0,VALID,91.9445,VALID,0,VALID,23.35,VALID,17,VALID,0,
2010-08-18, 03:25:04,VALID,998.867,VALID,0,VALID,91.9369,VALID,0,VALID,23.35,VALID,17,VALID,0,
2010-08-18, 03:26:04,VALID,998.833,VALID,0,VALID,91.9217,VALID,0,VALID,23.35,VALID,17,VALID,0,
2010-08-18, 03:27:04,VALID,998.819,VALID,0,VALID,91.8683,VALID,0,VALID,23.35,VALID,18,VALID,0,
2010-08-18, 03:28:04,VALID,998.799,VALID,0,VALID,91.792,VALID,0,VALID,23.35,VALID,18,VALID,0,
2010-08-18, 03:29:04,VALID,998.775,VALID,0,VALID,91.7309,VALID,0,VALID,23.3482,VALID,73,VALID,0,
2010-08-18, 03:30:04,VALID,998.727,VALID,0,VALID,91.7385,VALID,0,VALID,23.4085,VALID,133,VALID,0,
2010-08-18, 03:31:04,VALID,998.736,VALID,0,VALID,91.7538,VALID,0,VALID,23.4475,VALID,149,VALID,0.610547,
2010-08-18, 03:32:04,VALID,998.723,VALID,0,VALID,91.7004,VALID,0,VALID,23.4671,VALID,149,VALID,0.715234,
2010-08-18, 03:33:04,VALID,998.692,VALID,0,VALID,91.6165,VALID,0,VALID,23.4848,VALID,149,VALID,0.869141,
2010-08-18, 03:34:04,VALID,998.643,VALID,0,VALID,91.4944,VALID,0,VALID,23.5061,VALID,158,VALID,0.612891,
2010-08-18, 03:35:04,VALID,998.642,VALID,0,VALID,91.38,VALID,0,VALID,23.5043,VALID,154,VALID,0.680859,
2010-08-18, 03:36:04,VALID,998.65,VALID,0,VALID,91.4257,VALID,0,VALID,23.5646,VALID,152,VALID,0.0777344,
2010-08-18, 03:37:04,VALID,998.608,VALID,0,VALID,91.5249,VALID,0,VALID,23.5841,VALID,152,VALID,0,
2010-08-18, 03:38:04,VALID,998.571,VALID,0,VALID,91.5707,VALID,0,VALID,23.5841,VALID,175,VALID,0.0269531,
2010-08-18, 03:39:04,VALID,998.591,VALID,0,VALID,91.6088,VALID,0,VALID,23.5841,VALID,318,VALID,0.548047,
2010-08-18, 03:40:04,VALID,998.527,VALID,0,VALID,91.6165,VALID,0,VALID,23.5841,VALID,318,VALID,0.540625,
2010-08-18, 03:41:04,VALID,998.562,VALID,0,VALID,91.6851,VALID,0,VALID,23.5646,VALID,318,VALID,0.476172,
2010-08-18, 03:42:04,VALID,998.543,VALID,0,VALID,91.7157,VALID,0,VALID,23.5646,VALID,318,VALID,0.410156,
2010-08-18, 03:43:04,VALID,998.541,VALID,0,VALID,91.7538,VALID,0,VALID,23.5646,VALID,318,VALID,0.469141,
2010-08-18, 03:44:04,VALID,998.51,VALID,0,VALID,91.7538,VALID,0,VALID,23.5451,VALID,318,VALID,0.532422,
2010-08-18, 03:45:04,VALID,998.531,VALID,0,VALID,91.7538,VALID,0,VALID,23.5256,VALID,318,VALID,0.524609,
2010-08-18, 03:46:04,VALID,998.521,VALID,0,VALID,91.8301,VALID,0,VALID,23.5061,VALID,318,VALID,0.377734,
2010-08-18, 03:47:04,VALID,998.473,VALID,0,VALID,91.8683,VALID,0,VALID,23.4671,VALID,318,VALID,0.0890625,
2010-08-18, 03:48:04,VALID,998.479,VALID,0,VALID,91.9293,VALID,0,VALID,23.4671,VALID,318,VALID,0,
2010-08-18, 03:49:04,VALID,998.481,VALID,0,VALID,91.9598,VALID,0,VALID,23.4263,VALID,313,VALID,0.471875,
2010-08-18, 03:50:04,VALID,998.464,VALID,0,VALID,91.9827,VALID,0,VALID,23.4263,VALID,301,VALID,0.266406,